Regional Weather Roundup
Issued by NWS San Angelo, TX

Home | Current Version | Previous Version | Text Only | Print | Product List | Glossary On
Versions: 1 2 3 4 5 6 7 8 9 10 11 12 13 14 15 16 17 18 19 20 21 22 23 24 25 26 27 28 29 30 31 32 33 34 35 36 37 38 39 40 41 42 43 44 45 46 47 48 49 50
000
ASUS44 KSJT 010911
RWRSJT
WEST CENTRAL TEXAS REGIONAL WEATHER ROUNDUP
NATIONAL WEATHER SERVICE SAN ANGELO TX
400 AM CDT SUN MAY 01 2016

NOTE: "FAIR" INDICATES FEW OR NO CLOUDS BELOW 12,000 FEET WITH NO
SIGNIFICANT WEATHER AND/OR OBSTRUCTIONS TO VISIBILITY.

TXZ049-054-064>066-071>073-076>078-098-099-113-114-127-128-139-140-
154-155-168>170-011000
...LOCATIONS ACROSS WEST CENTRAL TEXAS...

CITY           SKY/WX    TMP DP  RH WIND       PRES   REMARKS
SAN ANGELO     CLEAR     58  53  84 NE7       29.87S
ABILENE        CLEAR     56  49  77 N7        29.96R
DYESS AFB      CLEAR     55  49  81 N9        29.96R
JUNCTION       CLEAR     63  57  81 E12       29.85S
SWEETWATER     PTCLDY    55  47  75 N13       30.00R
BROWNWOOD      MOCLDY    63  54  72 NE7G16    29.88S
COLEMAN        SUNNY     57  52  82 N10       29.89F
SONORA         CLEAR     63  57  82 VRB5      29.89R
OZONA          FAIR      61  50  67 E12G18    29.87S
BRADY          NOT AVBL
$$

TEXAS PANHANDLE/OKLAHOMA PANHANDLE

CITY           SKY/WX    TMP DP  RH WIND       PRES   REMARKS
AMARILLO       CLOUDY    41  33  73 N21G32    30.10S WCI  32
BORGER         CLOUDY    43  35  73 N15       30.11R WCI  36
CANADIAN       CLOUDY    45  36  72 NW12G17   30.08R WCI  39
DALHART        LGT RAIN  41  32  70 N18G28    30.11F WCI  32
DUMAS          CLOUDY    38  33  81 N21       30.11R WCI  28
GUYMON         NOT AVBL
HEREFORD       CLOUDY    42  35  74 N24G33    30.11R WCI  33
PAMPA          LGT RAIN  42  36  79 NW17      30.11R WCI  34
PERRYTON       MOCLDY    42  35  75 NW17      30.07S WCI  34
$$

SOUTHERN PANHANDLE/SOUTH PLAINS/ROLLING PLAINS

CITY           SKY/WX    TMP DP  RH WIND       PRES   REMARKS
LUBBOCK        MOCLDY    47  33  58 NE20G26   30.04R WCI  40
SNYDER           N/A     54  41  61 N16G24    29.98S
CHILDRESS      CLEAR     51  33  50 N20       30.04S
SEMINOLE       PTSUNNY   52  37  55 NE21G30   29.99R
$$

PERMIAN BASIN

CITY           SKY/WX    TMP DP  RH WIND       PRES   REMARKS
MIDLAND        CLEAR     59  47  64 NE25G33   29.90R
ODESSA         CLEAR     59  46  62 NE22G30   29.91R
WINK           CLOUDY    62  44  51 NE26G35   29.83R
$$

FAR WEST/SOUTHWEST MOUNTAINS/TRANS PECOS

CITY           SKY/WX    TMP DP  RH WIND       PRES   REMARKS
ALPINE         SUNNY     62  29  29 S7        29.87R
DRYDEN           N/A     68  48  48 E15       29.77R
EL PASO        PTCLDY    67  18  15 W15       29.78S
FORT STOCKTON  CLEAR     62  37  39 E15       29.79S
GUADALUPE PASS CLEAR     54  34  46 NE46G53   29.86F
MARFA          CLEAR     42  24  49 N6        29.85S WCI  38
PECOS          SUNNY     63  40  43 NE17G25   29.79R
$$

DALLAS/FORT WORTH METROPLEX

CITY           SKY/WX    TMP DP  RH WIND       PRES   REMARKS
DFW AIRPORT    CLEAR     62  56  80 N13       29.89R
FTW MEACHAM    CLEAR     60  53  77 N15       29.89R
DAL-EXECUTIVE  CLEAR     60  57  89 N5        29.87S
GRAND PRAIRIE  CLEAR     63  56  78 N8        29.89S
ADDISON        CLEAR     63  60  89 N10       29.91R
MESQUITE       SUNNY     61  60  99 CALM      29.89R
LANCASTER      SUNNY     61  57  87 N5        29.89R
$$

NORTH CENTRAL TEXAS

CITY           SKY/WX    TMP DP  RH WIND       PRES   REMARKS
SHRMAN/DENISON MOSUNNY   53  44  72 NE7       29.93S
GAINESVILLE    CLEAR     53  49  84 N5        29.96R
BRIDGEPORT     SUNNY     56  50  81 NE5       29.95R
DENTON         CLEAR     57  51  80 N10       29.92R
WAXAHACHIE     SUNNY     58  58 100 N6        29.89R
GRANBURY       MOSUNNY   58  54  85 NW3       29.90F
$$

WESTERN NORTH TEXAS

CITY           SKY/WX    TMP DP  RH WIND       PRES   REMARKS
WICHITA FALLS  CLEAR     52  46  80 N15       30.00R
VERNON         MOSUNNY   51  38  63 N6        30.04R
BRECKENRIDGE   MOSUNNY   55  49  78 NW5       29.96R
COMANCHE       CLEAR     57  57  99 N6        29.90R
$$

CENTRAL AND SOUTH CENTRAL TEXAS

CITY           SKY/WX    TMP DP  RH WIND       PRES   REMARKS
AUSTIN/BERGSTM CLEAR     67  64  90 NE9       29.81F
WACO           CLEAR     61  58  90 NE5       29.86S
HILLSBORO      SUNNY     61  60  95 N10       29.86S
TEMPLE         CLEAR     63  61  93 NE7       29.85
KILLEEN-GRAY   CLEAR     63  59  89 E7        29.85S
FORT HOOD      CLEAR     63  60  90 NE7       29.84S
GEORGETOWN       N/A    N/A N/A N/A MISG        N/A
LAGO VISTA     FAIR      65  61  86 NE9       29.84S
SAN MARCOS     CLEAR     66  64  94 NE9       29.82R
NEW BRAUNFELS  MOCLDY    69  66  90 NE12      29.79S
RANDOLPH AFB   PTCLDY    68  68 100 NE8       29.79F FOG
SAN ANTONIO    MOCLDY    69  64  84 NE9       29.79F
STINSON        PTCLDY    71  65  81 NE13      29.76S
PLEASANTON     NOT AVBL
LA GRANGE        N/A     72  67  86 NE6       29.80S
GIDDINGS       MOSUNNY   68  65  90 NE6       29.85F
$$

EAST TEXAS

CITY           SKY/WX    TMP DP  RH WIND       PRES   REMARKS
PARIS          CLEAR     61  52  72 N10       29.90S
CLARKSVILLE    NOT AVBL
TYLER          CLEAR     64  60  87 N9        29.87S
LONGVIEW       CLEAR     66  61  84 N7        29.86S
PALESTINE      SUNNY     65  63  94 NE6       29.87S
NACOGDOCHES    MOCLDY    70  64  83 N8        29.85R
$$

TEXAS HILL COUNTRY AND EDWARDS PLATEAU

CITY           SKY/WX    TMP DP  RH WIND       PRES   REMARKS
LLANO          SUNNY     61  59  94 CALM      29.90R
HORSESHOE BAY  FAIR      64  60  87 CALM      29.85S
KERRVILLE      CLEAR     58  56  95 CALM      29.83F
FREDERICKSBRG  CLEAR     63  61  93 NE8       29.85S
ROCKSPRINGS    SUNNY     63  57  82 E3        29.86R
HONDO          MOCLDY    68  64  87 E10       29.80S
UVALDE         MOSUNNY   64  62  93 NE5       29.78S
DEL RIO        CLEAR     63  58  83 CALM      29.76R
$$

SOUTHEAST TEXAS

CITY           SKY/WX    TMP DP  RH WIND       PRES   REMARKS
COLLEGE STN    CLEAR     69  65  86 NE9       29.83S
CALDWELL       SUNNY     66  66 100 NE3       29.86S
CROCKETT       SUNNY     66  64  94 NE8       29.87F
BRENHAM        PTCLDY    71  66  84 NE6       29.82F
HUNTSVILLE     CLOUDY    70  66  87 VRB3      29.84S
CONROE         CLOUDY    71  67  87 VRB6      29.82F
HOUSTON BUSH   CLOUDY    73  73 100 N13       29.79S
HOUSTON HOBBY  MOCLDY    78  75  90 N5        29.77S
PERLAND        CLOUDY    79  76  90 CALM      29.78F FOG
WHARTON        CLOUDY    75  73  95 N5        29.78F FOG
$$

THE UPPER TEXAS COAST

CITY           SKY/WX    TMP DP  RH WIND       PRES   REMARKS
ORANGE         CLOUDY    77  74  90 S9        29.77F THUNDER FOG
PORT ARTHUR    TSTM      69  67  93 SE14      29.75F FOG
GALVESTON      CLOUDY    77  77 100 S9        29.78F FOG
ANGLETON       CLOUDY    78  76  93 NE3       29.77S FOG
BAY CITY       CLOUDY    76  76 100 NE3       29.77S FOG
$$

TEXAS COASTAL BEND, RIO GRANDE PLAINS DEEP SOUTH TEXAS

CITY           SKY/WX    TMP DP  RH WIND       PRES   REMARKS
VICTORIA       CLOUDY    75  74  96 NE6       29.77S FOG
BEEVILLE       CLOUDY    67  67 100 E5        29.75S FOG
ROCKPORT       CLOUDY    79  74  84 NE9       29.74R
PORT ARANSAS   PTSUNNY   76  76 100 E8        29.73S
PORT LAVACA    CLOUDY    75  75 100 NE9       29.76S FOG
CORPUS CHRISTI CLOUDY    78  74  87 E6        29.73S
KINGSVILLE NAS CLOUDY    76  76 100 E5        29.72S
COTULLA        CLOUDY    75  68  78 SE8       29.74F
LAREDO         CLOUDY    75  71  87 E3        29.73S
BROWNSVILLE    CLOUDY    78  77  96 E6        29.70F FOG
PORT ISABEL    CLOUDY    80  78  94 SE6       29.70S FOG
HEBBRONVILLE   CLOUDY    76  71  83 E10       29.75S
MCALLEN        CLOUDY    80  75  84 E8        29.70F
WESLACO        CLOUDY    78  74  89 E3        29.70S FOG
FALFURRIAS     CLOUDY    78  72  81 E5        29.72S
EDINBURG       CLOUDY    79  75  88 E5        29.71S FOG
$$




USA.gov is the U.S. government's official web portal to all federal, state and local government web resources and services.